Left ArrowRight Arrow

Hourly Observations for September 8, 2021

Temp ( °F °C ) Dew Point ( °F °C ) Humidity (%) Winds ( mph kmh ) Pressure ( in mb ) Visibility ( mi km ) Precip ( " mm )
12:53 am 00:53 Cloudy with Haze 77 25 41 5 28 28 NNW 3 6 29.85 1011 6 10 0.00 0.00
1:53 am 01:53 Hazy 80 26.7 38 3.3 22 22 NNW 3 6 29.85 1011 5 8 0.00 0.00
2:53 am 02:53 Mostly Cloudy with Haze 77 25 39 3.9 26 26 Calm 29.84 1011 5 8 0.00 0.00
3:53 am 03:53 Mostly Cloudy with Haze 75 23.9 41 5 29 29 Calm 29.83 1010 5 8 0.00 0.00
4:53 am 04:53 Cloudy with Haze 70 21.1 40 4.4 34 34 Calm 29.83 1010 5 8 0.00 0.00
5:53 am 05:53 Mostly Cloudy with Haze 70 21.1 41 5 35 35 Calm 29.83 1010 4 6 0.00 0.00
6:53 am 06:53 Mostly Cloudy with Haze 70 21.1 41 5 35 35 N 3 6 29.83 1010 3 5 0.00 0.00
7:25 am 07:25 Cloudy with Haze 72 22.2 42 5.6 34 34 Calm 29.84 1011 3 4 0.00 0.00
7:53 am 07:53 Cloudy with Haze 74 23.3 42 5.6 32 32 Calm 29.84 1011 3 4 0.00 0.00
8:44 am 08:44 Cloudy with Haze 80 26.7 42 5.6 26 26 Calm 29.85 1011 2 3 0.00 0.00
8:53 am 08:53 Cloudy with Haze 81 27.2 41 5 24 24 NE 3 6 29.85 1011 2 2 0.00 0.00
9:53 am 09:53 Cloudy with Haze 89 31.7 40 4.4 18 18 NNE 3 6 29.85 1011 2 3 0.00 0.00
10:53 am 10:53 Cloudy with Haze 93 33.9 41 5 16 16 Calm 29.84 1011 2 3 0.00 0.00
11:16 am 11:16 Cloudy with Haze 95 35 40 4.4 15 15 NNW 3 6 29.82 1010 2 3 0.00 0.00
11:28 am 11:28 Cloudy with Haze 94 34.4 43 6.1 17 17 Calm 29.82 1010 2 3 0.00 0.00
11:44 am 11:44 Cloudy with Haze 96 35.6 41 5 15 15 Calm 29.81 1010 2 3 0.00 0.00
11:53 am 11:53 Mostly Cloudy with Haze 97 36.1 41 5 14 14 Calm 29.83 1010 2 3 0.00 0.00
12:53 pm 12:53 Mostly Cloudy with Haze 98 36.7 42 5.6 15 15 Calm 29.81 1010 2 3 0.00 0.00
1:53 pm 13:53 Cloudy with Haze 101 38.3 39 3.9 12 12 SSE 5 7 29.79 1009 3 4 0.00 0.00
2:13 pm 14:13 Cloudy with Haze 101 38.3 39 3.9 12 12 Calm 29.77 1008 3 5 0.00 0.00
2:53 pm 14:53 Cloudy with Haze 103 39.4 41 5 12 12 WSW 6 9 29.77 1008 4 6 0.00 0.00
3:53 pm 15:53 Mostly Cloudy with Haze 104 40 41 5 12 12 VRB 3 6 29.75 1007 3 5 0.00 0.00
4:53 pm 16:53 Hazy 104 40 42 5.6 12 12 SSW 7 11 29.74 1007 5 8 0.00 0.00
5:53 pm 17:53 Hazy 102 38.9 44 6.7 14 14 S 3 6 29.73 1007 5 8 0.00 0.00
6:53 pm 18:53 Hazy 98 36.7 46 7.8 17 17 SE 3 6 29.73 1007 5 8 0.00 0.00
7:53 pm 19:53 Clear with Smoke 91 32.8 50 10 25 25 Calm 29.73 1007 7 11 0.00 0.00
8:53 pm 20:53 Clear with Smoke 87 30.6 49 9.4 27 27 Calm 29.74 1007 7 11 0.00 0.00
9:53 pm 21:53 Clear with Smoke 84 28.9 48 8.9 29 29 NE 6 9 29.75 1007 7 11 0.00 0.00
10:53 pm 22:53 Mostly Cloudy with Haze 80 26.7 49 9.4 34 34 Calm 29.75 1007 6 10 0.00 0.00
11:53 pm 23:53 Cloudy with Haze 78 25.6 51 10.6 39 39 Calm 29.75 1008 5 8 0.00 0.00

Powered by Vaisala Xweather